Regional Weather Roundup
Issued by NWS

Home | Current Version | Previous Version | Graphics & Text | Print | Product List | Glossary On
Versions: 1 2 3 4 5 6 7 8 9 10 11 12 13 14 15 16 17 18 19 20 21 22 23 24 25 26 27 28 29 30 31 32 33 34 35 36 37 38 39 40 41 42 43 44 45 46 47 48 49 50
000
ASUS43 KLSX 301657
RWRMO

WEATHER SUMMARY FOR MISSOURI
NATIONAL WEATHER SERVICE SPRINGFIELD MO
1200 PM CDT SAT APR 30 2016

NOTE: "FAIR" INDICATES FEW OR NO CLOUDS BELOW 12,000 FEET WITH NO
       SIGNIFICANT WEATHER AND/OR OBSTRUCTIONS TO VISIBILITY.
       CURRENT SKY AND/OR WEATHER CONDITIONS ARE NOT AVAILABLE FOR
       CHILLICOTHE AND FARMINGTON.

MOZ001>031-035>038-043-044-053-054-301800-
...NORTHERN AND WESTERN MISSOURI...

CITY           SKY/WX    TMP DP  RH WIND       PRES   REMARKS
KANSAS CTY INT PTSUNNY   65  58  78 W17G26    29.67R
KANSAS C DTWN  MOSUNNY   68  57  68 W20G26    29.66R
LEE`S SUMMIT   PTSUNNY   69  59  70 SW22G30   29.67R
ST JOSEPH      CLOUDY    59  57  93 S5        29.66S
CHILLICOTHE      N/A     58  56  93 VRB3      29.69S

$$
MOZ066>068-077>081-088>096-101>105-301800-
...SOUTHWEST MISSOURI...

CITY           SKY/WX    TMP DP  RH WIND       PRES   REMARKS
SPRINGFIELD    CLOUDY    69  60  73 S14       29.73R
JOPLIN         PTSUNNY   67  59  75 SW14G21   29.75R
BRANSON        CLOUDY    68  61  77 SW5       29.77S

$$
MOZ032>034-039>042-045>050-055>058-069>072-301800-
...CENTRAL MISSOURI...

CITY           SKY/WX    TMP DP  RH WIND       PRES   REMARKS
COLUMBIA       NOT AVBL
JEFFERSON CITY CLOUDY    68  62  81 SW9       29.71R
ROLLA          CLOUDY    65  62  90 S10       29.73R
SEDALIA        PTSUNNY   73  62  68 SW18G24   29.68F
WARRENSBURG    MOSUNNY   70  59  68 SW16      29.67S

$$
MOZ051-052-059>065-301800-
...EAST CENTRAL MISSOURI...

CITY           SKY/WX    TMP DP  RH WIND       PRES   REMARKS
ST LOUIS INTL  CLOUDY    65  61  87 SE10      29.75F
ST CHARLES     CLOUDY    63  63 100 E10       29.74F

$$
MOZ072>076-082>087-097>100-106>115-301800-
...SOUTH CENTRAL AND SOUTHEAST MISSOURI...

CITY           SKY/WX    TMP DP  RH WIND       PRES   REMARKS
CAPE GIRARDEAU CLOUDY    69  63  81 S9        29.81F
POPLAR BLUFF   CLOUDY    69  61  75 SW13      29.80S
WEST PLAINS    CLOUDY    65  59  81 SW13      29.78R

$$



USA.gov is the U.S. government's official web portal to all federal, state and local government web resources and services.